PulseSat

PulseSat

COSMOS 2478 (746)

Last updated on May 30, 2016, 1:44 a.m. UTC

1 37938U 11071A   16150.67861852 -.00000011  00000-0  00000+0 0  9998
2 37938  65.2466  77.8426 0013949 245.4604  47.2031  2.13088541 35160
UTC
Height (km)
Latitude
Longitude
Inclination
Orbital Period

Next 30 passes for location: Hong Kong

Rise time Rise Azimuth (degrees) Set time Set Azimuth (degrees) Duration Max altitude (degrees)

No matching passes for this satellites

PulseSat

PulseSat is the new satellites software and hardware trackering solution by Pulsely.
Satellite Two Line Element Set source: US Air Force Space Command

Download PulseSat for iOS
© 2017 Pulsely Limited